When you browse on this site, cookies collect data to enhance your experience and personalize the content and advertising you see.
Visit our Privacy Policy to learn more. By continuing to use the site, you agree to this use of cookies and data.
  • In Germany
  • List of Countries
  • For 7 days
  • Water Temperature
  • Weather Map
  • Weather Widgets
  • user-avatar
    Login

    Hourly Weather Molodezhnyy

    Today, 24 February, Monday

    Time Temperature Precipitation Wind Pressure Humidity
    00:00 -7°C° 0 mm 3 mps 740 mmHg 88%
    01:00 -8°C° 0 mm 3 mps 740 mmHg 89%
    02:00 -8°C° 0 mm 3 mps 739 mmHg 89%
    03:00 -8°C° 0 mm 3 mps 739 mmHg 90%
    04:00 -8°C° 0 mm 3 mps 738 mmHg 91%
    05:00 -9°C° 0 mm 4 mps 737 mmHg 90%
    06:00 -9°C° 0 mm 4 mps 737 mmHg 88%
    07:00 -8°C° 0 mm 4 mps 736 mmHg 86%
    08:00 -8°C° 0 mm 5 mps 735 mmHg 83%
    09:00 -7°C° 0 mm 5 mps 735 mmHg 81%
    10:00 -6°C° 0 mm 6 mps 735 mmHg 78%
    11:00 -6°C° 0 mm 6 mps 734 mmHg 80%
    12:00 -6°C° 0 mm 6 mps 734 mmHg 83%
    13:00 -6°C° 0 mm 6 mps 733 mmHg 86%
    14:00 -5°C° 0.2 mm 6 mps 733 mmHg 88%
    15:00 -5°C° 0.2 mm 5 mps 732 mmHg 89%
    16:00 -5°C° 0.2 mm 5 mps 732 mmHg 91%
    17:00 -5°C° 0.2 mm 5 mps 732 mmHg 90%
    18:00 -6°C° 0.2 mm 5 mps 731 mmHg 90%
    19:00 -6°C° 0.2 mm 5 mps 731 mmHg 89%
    20:00 -6°C° 0 mm 5 mps 731 mmHg 89%
    21:00 -5°C° 0 mm 4 mps 731 mmHg 89%
    22:00 -7°C° 0 mm 4 mps 731 mmHg 88%
    23:00 -7°C° 0 mm 4 mps 731 mmHg 90%

    Tomorrow, 25 February, Tuesday

    Time Temperature Precipitation Wind Pressure Humidity
    00:00 -7°C° 0 mm 4 mps 731 mmHg 91%
    01:00 -6°C° 0 mm 3 mps 732 mmHg 92%
    02:00 -6°C° 0 mm 3 mps 732 mmHg 92%
    03:00 -6°C° 0 mm 3 mps 732 mmHg 93%
    04:00 -6°C° 0 mm 2 mps 733 mmHg 93%
    05:00 -6°C° 0 mm 2 mps 733 mmHg 93%
    06:00 -6°C° 0 mm 2 mps 733 mmHg 93%
    07:00 -8°C° 0 mm 3 mps 734 mmHg 94%
    08:00 -6°C° 0 mm 3 mps 734 mmHg 91%
    09:00 -5°C° 0 mm 3 mps 734 mmHg 89%
    10:00 -4°C° 0 mm 3 mps 734 mmHg 87%
    11:00 -2°C° 0 mm 3 mps 735 mmHg 86%
    12:00 -2°C° 0 mm 3 mps 735 mmHg 85%
    13:00 -1°C° 0 mm 3 mps 735 mmHg 84%
    14:00 -1°C° 0 mm 3 mps 735 mmHg 83%
    15:00 -1°C° 0 mm 3 mps 735 mmHg 83%
    16:00 -1°C° 0 mm 3 mps 735 mmHg 82%
    17:00 -2°C° 0 mm 3 mps 735 mmHg 85%
    18:00 -2°C° 0 mm 3 mps 734 mmHg 88%
    19:00 -4°C° 0 mm 3 mps 734 mmHg 90%
    20:00 -5°C° 0 mm 3 mps 734 mmHg 92%
    21:00 -6°C° 0 mm 3 mps 734 mmHg 94%
    22:00 -7°C° 0 mm 3 mps 734 mmHg 95%
    23:00 -6°C° 0 mm 3 mps 733 mmHg 95%

    Day after tomorrow, 26 February, Wednesday

    Time Temperature Precipitation Wind Pressure Humidity
    00:00 -6°C° 0 mm 3 mps 733 mmHg 94%
    01:00 -5°C° 0 mm 3 mps 732 mmHg 93%
    02:00 -5°C° 0 mm 4 mps 732 mmHg 93%
    03:00 -5°C° 0 mm 4 mps 731 mmHg 92%
    04:00 -4°C° 0 mm 4 mps 731 mmHg 91%
    05:00 -4°C° 0 mm 4 mps 730 mmHg 92%
    06:00 -5°C° 0 mm 4 mps 729 mmHg 92%
    07:00 -5°C° 0 mm 4 mps 729 mmHg 92%
    08:00 -5°C° 0 mm 4 mps 728 mmHg 92%
    09:00 -4°C° 0 mm 4 mps 727 mmHg 91%
    10:00 -5°C° 0 mm 5 mps 727 mmHg 91%
    11:00 -4°C° 0.7 mm 4 mps 726 mmHg 92%
    12:00 -4°C° 0.7 mm 4 mps 725 mmHg 93%
    13:00 -4°C° 0.7 mm 4 mps 725 mmHg 95%
    14:00 -4°C° 1 mm 4 mps 724 mmHg 95%
    15:00 -4°C° 1 mm 3 mps 724 mmHg 96%
    16:00 -2°C° 1 mm 2 mps 723 mmHg 96%
    17:00 -3°C° 0.3 mm 2 mps 723 mmHg 97%
    18:00 -1°C° 0.3 mm 1 mps 723 mmHg 97%
    19:00 -2°C° 0.3 mm 1 mps 723 mmHg 98%
    20:00 -2°C° 0.2 mm 1 mps 723 mmHg 97%
    21:00 -2°C° 0.2 mm 1 mps 723 mmHg 97%
    22:00 -3°C° 0.2 mm 1 mps 723 mmHg 97%
    23:00 -5°C° 0 mm 2 mps 723 mmHg 96%

    27 February, Thursday

    Time Temperature Precipitation Wind Pressure Humidity
    00:00 -6°C° 0 mm 3 mps 724 mmHg 94%
    01:00 -6°C° 0 mm 3 mps 724 mmHg 92%
    02:00 -7°C° 0 mm 4 mps 724 mmHg 91%
    03:00 -7°C° 0 mm 4 mps 725 mmHg 90%
    04:00 -7°C° 0 mm 4 mps 726 mmHg 89%
    05:00 -7°C° 0 mm 4 mps 727 mmHg 88%
    06:00 -6°C° 0 mm 5 mps 727 mmHg 87%
    07:00 -6°C° 0 mm 5 mps 728 mmHg 86%
    08:00 -6°C° 0 mm 5 mps 729 mmHg 85%
    09:00 -6°C° 0 mm 5 mps 729 mmHg 84%
    10:00 -6°C° 0 mm 5 mps 730 mmHg 84%
    11:00 -5°C° 0 mm 5 mps 730 mmHg 81%
    12:00 -4°C° 0 mm 4 mps 730 mmHg 78%
    13:00 -3°C° 0 mm 4 mps 731 mmHg 75%
    14:00 -3°C° 0 mm 4 mps 731 mmHg 79%
    15:00 -4°C° 0 mm 5 mps 732 mmHg 82%
    16:00 -4°C° 0 mm 5 mps 732 mmHg 86%
    17:00 -4°C° 0 mm 4 mps 732 mmHg 87%
    18:00 -5°C° 0 mm 3 mps 733 mmHg 89%
    19:00 -5°C° 0 mm 3 mps 733 mmHg 90%
    20:00 -5°C° 0 mm 3 mps 734 mmHg 91%
    21:00 -4°C° 0 mm 2 mps 734 mmHg 92%
    22:00 -4°C° 0 mm 2 mps 735 mmHg 93%
    23:00 -4°C° 0 mm 2 mps 735 mmHg 93%

    28 February, Friday

    Time Temperature Precipitation Wind Pressure Humidity
    00:00 -3°C° 0 mm 2 mps 735 mmHg 93%
    01:00 -3°C° 0 mm 2 mps 736 mmHg 94%
    02:00 -2°C° 0 mm 2 mps 736 mmHg 93%
    03:00 -2°C° 0 mm 2 mps 736 mmHg 93%
    04:00 -1°C° 0 mm 3 mps 736 mmHg 93%
    05:00 -2°C° 0 mm 3 mps 736 mmHg 93%
    06:00 -2°C° 0 mm 3 mps 736 mmHg 93%
    07:00 -4°C° 0 mm 3 mps 736 mmHg 93%
    08:00 -2°C° 0.1 mm 3 mps 736 mmHg 94%
    09:00 -1°C° 0.1 mm 3 mps 736 mmHg 95%
    10:00 -1°C° 0.1 mm 4 mps 736 mmHg 96%
    11:00 -1°C° 0 mm 4 mps 737 mmHg 95%
    12:00 0°C° 0 mm 4 mps 737 mmHg 94%
    13:00 0°C° 0 mm 4 mps 737 mmHg 93%
    14:00 0°C° 0 mm 4 mps 737 mmHg 92%
    15:00 0°C° 0 mm 4 mps 738 mmHg 92%
    16:00 +1°C° 0 mm 3 mps 738 mmHg 92%
    17:00 0°C° 0 mm 3 mps 739 mmHg 91%
    18:00 0°C° 0 mm 3 mps 739 mmHg 91%
    19:00 0°C° 0 mm 3 mps 739 mmHg 91%
    20:00 -1°C° 0 mm 3 mps 740 mmHg 91%
    21:00 -1°C° 0 mm 3 mps 740 mmHg 92%
    22:00 -1°C° 0 mm 3 mps 740 mmHg 92%
    23:00 -2°C° 0 mm 3 mps 740 mmHg 91%

    29 February, Saturday

    Time Temperature Precipitation Wind Pressure Humidity
    00:00 -2°C° 0 mm 3 mps 740 mmHg 91%
    01:00 -4°C° 0 mm 3 mps 740 mmHg 90%
    02:00 -4°C° 0 mm 3 mps 740 mmHg 89%
    03:00 -4°C° 0 mm 3 mps 740 mmHg 87%
    04:00 -4°C° 0 mm 3 mps 740 mmHg 85%
    05:00 -4°C° 0 mm 3 mps 740 mmHg 84%
    06:00 -4°C° 0 mm 2 mps 739 mmHg 83%
    07:00 -4°C° 0 mm 2 mps 739 mmHg 82%
    08:00 -4°C° 0 mm 3 mps 739 mmHg 80%
    09:00 -2°C° 0 mm 3 mps 738 mmHg 79%
    10:00 -1°C° 0 mm 3 mps 738 mmHg 77%
    11:00 0°C° 0 mm 3 mps 738 mmHg 77%
    12:00 0°C° 0 mm 4 mps 738 mmHg 77%
    13:00 0°C° 0 mm 4 mps 738 mmHg 77%
    14:00 0°C° 0 mm 4 mps 738 mmHg 77%
    15:00 0°C° 0 mm 4 mps 738 mmHg 77%
    16:00 0°C° 0 mm 4 mps 739 mmHg 76%
    17:00 0°C° 0 mm 3 mps 739 mmHg 78%
    18:00 -1°C° 0 mm 3 mps 739 mmHg 79%
    19:00 -2°C° 0 mm 3 mps 739 mmHg 81%
    20:00 -2°C° 0 mm 3 mps 739 mmHg 83%
    21:00 -4°C° 0 mm 3 mps 739 mmHg 86%
    22:00 -4°C° 0 mm 3 mps 740 mmHg 89%
    23:00 -4°C° 0.3 mm 3 mps 740 mmHg 91%
    Show more